(242497) = 2004 XL20 = 2006 FX46

Discovered at Socorro on 2004-12-08 by LINEAR.

Orbit

Orbit type: Main Belt

Note: WebGL enabled browser required.

epoch2024-03-31.0
epoch JD2460400.5
perihelion date2021-07-02.91746
perihelion JD2459398.41746
argument of perihelion (°)62.64699
ascending node (°)80.23365
inclination (°)10.84590
eccentricity0.0858608
perihelion distance (AU)2.7632946
Tisserand w.r.t. Jupiter3.2
ΔV w.r.t. Earth (km/sec)10.9
semimajor axis (AU)3.0228379
mean anomaly (°)187.92521
mean daily motion (°/day)0.18753470
aphelion distance (AU)3.282
period (years)5.26
P-vector [x]-0.78174409
P-vector [y]0.48473007
P-vector [z]0.39231739
Q-vector [x]-0.59538872
Q-vector [y]-0.76725031
Q-vector [z]-0.23840980
absolute magnitude15.59
phase slope0.15
uncertainty0
referenceMPEC 2024-E02
observations used514
oppositions13
arc length (days)7755
first opposition used2001
last opposition used2022
residual rms (arc-secs)0.75
perturbers coarse indicatorM-v
perturbers precise indicator003Ek
first observation date used2001-03-23.0
last observation date used2022-06-16.0
computer nameMPCLINUX
JD of orbit computation2456966.902898
perihelion JD uncertainty (days)9.0699E-04
argument of perihelion uncertainty (°)1.8066E-04
ascending node uncertainty (°)5.6778E-05
inclination uncertainty (°)1.4640E-05
eccentricity uncertainty 1.2858E-07
perihelion distance uncertainty (AU)3.7917E-07
Minimum Orbit Intersection Distances (in AU)
for orbit epoch: 2460400.5, reference: E2024-E02
Mercury2.40708
Venus2.05095
Earth1.79771
Mars1.13967
Jupiter1.84718
Saturn6.12989
Uranus15.7028
Neptune26.7051

Observations

528 total observations over interval: 2001 03 23.33445 – 2022 06 16.241806
These data are available for download (format description).

Date (UT) J2000 RA J2000 Dec Magn Location Ref
2001 03 23.33445 14 29 13.78 -01 01 43.2 19.5 R 699 – Lowell Observatory-LONEOS MPS 169915
2001 03 23.35321 14 29 13.24 -01 01 38.3   699 – Lowell Observatory-LONEOS MPS 169915
2001 03 23.37202 14 29 12.74 -01 01 34.6   699 – Lowell Observatory-LONEOS MPS 169915
2001 03 23.39086 14 29 12.24 -01 01 31.9   699 – Lowell Observatory-LONEOS MPS 169915
2004 12 08.30758 05 38 58.41 +23 52 27.5 19.3   704 – Lincoln Laboratory ETS, New Mexico MPS 121823
2004 12 08.34640 05 38 56.13 +23 52 35.1 19.9   704 – Lincoln Laboratory ETS, New Mexico MPS 121823
2004 12 08.36251 05 38 55.28 +23 52 37.7 19.8   704 – Lincoln Laboratory ETS, New Mexico MPS 121823
2004 12 08.37659 05 38 54.32 +23 52 39.4 19.8   704 – Lincoln Laboratory ETS, New Mexico MPS 121823
2004 12 10.27534 05 37 06.36 +23 58 20.5 19.7   704 – Lincoln Laboratory ETS, New Mexico MPS 121823
2004 12 10.28800 05 37 05.55 +23 58 22.1 19.6   704 – Lincoln Laboratory ETS, New Mexico MPS 121823
2004 12 10.30075 05 37 04.79 +23 58 25.3 19.9   704 – Lincoln Laboratory ETS, New Mexico MPS 121823
2004 12 10.31297 05 37 04.13 +23 58 27.6 19.8   704 – Lincoln Laboratory ETS, New Mexico MPS 121823
2004 12 10.32556 05 37 03.30 +23 58 29.4 19.6   704 – Lincoln Laboratory ETS, New Mexico MPS 121823
2004 12 11.23130 05 36 11.28 +24 01 09.9 19.7 V 691 – Steward Observatory, Kitt Peak-Spacewatch MPS 121823
2004 12 11.26857 05 36 09.05 +24 01 16.6 19.4 V 691 – Steward Observatory, Kitt Peak-Spacewatch MPS 121823
2004 12 11.29439 05 36 07.52 +24 01 21.3 19.4 V 691 – Steward Observatory, Kitt Peak-Spacewatch MPS 121823
2004 12 14.25799 05 33 14.80 +24 09 57.9 19.6   704 – Lincoln Laboratory ETS, New Mexico MPS 121823
2004 12 14.26178 05 33 14.65 +24 09 57.3 19.8   704 – Lincoln Laboratory ETS, New Mexico MPS 121823
2004 12 14.27115 05 33 14.01 +24 09 59.2 19.9   704 – Lincoln Laboratory ETS, New Mexico MPS 121823
2004 12 14.27493 05 33 13.69 +24 09 59.2 20.3   704 – Lincoln Laboratory ETS, New Mexico MPS 121823
2004 12 14.29809 05 33 12.40 +24 10 04.0 20.2   704 – Lincoln Laboratory ETS, New Mexico MPS 121823
2004 12 14.30186 05 33 12.16 +24 10 04.9 19.9   704 – Lincoln Laboratory ETS, New Mexico MPS 121823
2004 12 14.31181 05 33 11.61 +24 10 06.9 19.7   704 – Lincoln Laboratory ETS, New Mexico MPS 121823
2004 12 14.31558 05 33 11.32 +24 10 06.1 19.9   704 – Lincoln Laboratory ETS, New Mexico MPS 121823
2004 12 16.25595 05 31 17.60 +24 15 36.7 19.4   704 – Lincoln Laboratory ETS, New Mexico MPS 121823
2004 12 16.25990 05 31 17.35 +24 15 37.2 19.0   704 – Lincoln Laboratory ETS, New Mexico MPS 121823
2004 12 16.27232 05 31 16.57 +24 15 39.0 20.1   704 – Lincoln Laboratory ETS, New Mexico MPS 121823
2004 12 16.27670 05 31 16.34 +24 15 39.0 19.5   704 – Lincoln Laboratory ETS, New Mexico MPS 121823
2004 12 16.28689 05 31 15.75 +24 15 41.7 19.9   704 – Lincoln Laboratory ETS, New Mexico MPS 121823
2004 12 16.29157 05 31 15.40 +24 15 42.8 19.8   704 – Lincoln Laboratory ETS, New Mexico MPS 121823
2004 12 16.30118 05 31 14.75 +24 15 43.8 20.5   704 – Lincoln Laboratory ETS, New Mexico MPS 121823
2004 12 16.30544 05 31 14.62 +24 15 44.9 19.7   704 – Lincoln Laboratory ETS, New Mexico MPS 121823
2004 12 16.31569 05 31 13.96 +24 15 46.7 19.8   704 – Lincoln Laboratory ETS, New Mexico MPS 121823
2004 12 16.31988 05 31 13.75 +24 15 47.5 19.4   704 – Lincoln Laboratory ETS, New Mexico MPS 121823
2006 03 03.34054 12 55 13.87 +11 19 24.1 19.8 V 703 – Catalina Sky Survey MPS 169915
2006 03 03.34838 12 55 13.62 +11 19 28.2 19.4 V 703 – Catalina Sky Survey MPS 169915
2006 03 03.35587 12 55 13.33 +11 19 29.8 19.8 V 703 – Catalina Sky Survey MPS 169916
2006 03 03.36348 12 55 13.18 +11 19 30.9 19.7 V 703 – Catalina Sky Survey MPS 169916
2006 03 23.33914 12 41 42.14 +13 08 24.6 19.6 V 703 – Catalina Sky Survey MPS 168875
2006 03 23.34825 12 41 41.56 +13 08 27.9 18.9 V 703 – Catalina Sky Survey MPS 168875
2006 03 23.35738 12 41 41.13 +13 08 29.4 19.3 V 703 – Catalina Sky Survey MPS 168875
2006 03 23.36653 12 41 40.74 +13 08 31.7 19.5 V 703 – Catalina Sky Survey MPS 168875
2006 04 02.28880 12 33 41.36 +13 46 08.1 19.6 V 703 – Catalina Sky Survey MPS 168875
2006 04 02.29684 12 33 40.89 +13 46 09.4 19.9 V 703 – Catalina Sky Survey MPS 168875
2006 04 02.30507 12 33 40.50 +13 46 11.0 19.5 V 703 – Catalina Sky Survey MPS 168875
2006 04 02.31322 12 33 40.17 +13 46 12.1 19.3 V 703 – Catalina Sky Survey MPS 168875
2006 04 23.16778 12 18 59.12 +14 04 17.4 19.6 R 699 – Lowell Observatory-LONEOS MPS 169916
2006 04 23.19329 12 18 58.32 +14 04 14.9   699 – Lowell Observatory-LONEOS MPS 169916
2006 04 23.21886 12 18 57.56 +14 04 14.0   699 – Lowell Observatory-LONEOS MPS 169916
2006 04 23.24442 12 18 56.54 +14 04 11.8   699 – Lowell Observatory-LONEOS MPS 169916
2009 11 19.25985 03 57 14.74 +14 23 30.0 20.2   704 – Lincoln Laboratory ETS, New Mexico MPS 303280
2009 11 19.27224 03 57 14.09 +14 23 29.4 19.9   704 – Lincoln Laboratory ETS, New Mexico MPS 303280
2009 11 19.28455 03 57 13.40 +14 23 30.6 19.7   704 – Lincoln Laboratory ETS, New Mexico MPS 303280
2009 11 19.29695 03 57 12.65 +14 23 30.2 19.6   704 – Lincoln Laboratory ETS, New Mexico MPS 303280
2009 11 20.23883 03 56 21.10 +14 23 37.8 19.6   704 – Lincoln Laboratory ETS, New Mexico MPS 304879
2009 11 20.25115 03 56 20.36 +14 23 38.6 19.8   704 – Lincoln Laboratory ETS, New Mexico MPS 304879
2009 11 20.26352 03 56 19.62 +14 23 38.5 20.5   704 – Lincoln Laboratory ETS, New Mexico MPS 304879
2009 11 20.27581 03 56 18.99 +14 23 37.4 19.3   704 – Lincoln Laboratory ETS, New Mexico MPS 304879
2009 11 20.28812 03 56 18.27 +14 23 38.4 20.1   704 – Lincoln Laboratory ETS, New Mexico MPS 304879
2009 11 23.31447 03 53 31.23 +14 24 19.6 19.0 V G96 – Mt. Lemmon Survey MPS 304879
2009 11 23.32145 03 53 30.84 +14 24 19.6 19.1 V G96 – Mt. Lemmon Survey MPS 304879
2009 11 23.32839 03 53 30.44 +14 24 19.9 18.9 V G96 – Mt. Lemmon Survey MPS 304879
2009 11 23.33537 03 53 30.04 +14 24 19.9 19.0 V G96 – Mt. Lemmon Survey MPS 304879
2009 12 11.26314 03 37 55.84 +14 37 12.1 19.6 V 703 – Catalina Sky Survey MPS 307277
2009 12 11.27037 03 37 55.52 +14 37 12.5 19.4 V 703 – Catalina Sky Survey MPS 307277
2009 12 11.27770 03 37 55.20 +14 37 13.5 19.6 V 703 – Catalina Sky Survey MPS 307277
2009 12 11.28502 03 37 54.76 +14 37 13.2 19.3 V 703 – Catalina Sky Survey MPS 307277
2009 12 19.07100 03 32 28.67 +14 48 57.9 20.0 V 691 – Steward Observatory, Kitt Peak-Spacewatch MPS 308624
2009 12 19.08688 03 32 28.04 +14 48 59.5 20.1 V 691 – Steward Observatory, Kitt Peak-Spacewatch MPS 308624
2009 12 19.10275 03 32 27.40 +14 49 01.3 19.9 V 691 – Steward Observatory, Kitt Peak-Spacewatch MPS 308624
2009 12 19.19392 03 32 23.92 +14 49 11.2 19.6 V G96 – Mt. Lemmon Survey MPS 308624
2009 12 19.20144 03 32 23.64 +14 49 12.2 19.7 V G96 – Mt. Lemmon Survey MPS 308624
2009 12 19.20895 03 32 23.35 +14 49 12.7 19.6 V G96 – Mt. Lemmon Survey MPS 308624
2009 12 19.21652 03 32 23.06 +14 49 13.6 19.6 V G96 – Mt. Lemmon Survey MPS 308624
2010 02 08.609616 03 32 20.94 +17 54 04.9   C51 – WISE MPS 333532
2010 02 08.741919 03 32 25.74 +17 54 45.6   C51 – WISE MPS 333532
2010 02 08.940440 03 32 32.82 +17 55 43.8   C51 – WISE MPS 333532
2010 02 09.006655 03 32 35.208 +17 56 02.22   C51 – WISE MPS 903694
2010 02 09.072870 03 32 37.64 +17 56 25.4   C51 – WISE MPS 333532
2010 02 09.337479 03 32 47.27 +17 57 44.1   C51 – WISE MPS 333532
2010 02 09.602215 03 32 57.07 +17 59 03.8   C51 – WISE MPS 333532
2010 03 13.12418 04 01 08.04 +20 46 52.9 20.8 V G96 – Mt. Lemmon Survey MPS 317896
2010 03 13.13024 04 01 08.47 +20 46 55.3 21.1 V G96 – Mt. Lemmon Survey MPS 317896
2010 03 13.13624 04 01 08.90 +20 46 57.1 21.2 V G96 – Mt. Lemmon Survey MPS 317896
2010 03 13.14233 04 01 09.30 +20 46 59.1 21.3 V G96 – Mt. Lemmon Survey MPS 317896
2011 01 03.39547 11 16 36.64 +18 21 40.7 19.9 R H15 – ISON-NM Observatory, Mayhill MPS 365298
2011 01 03.40900 11 16 36.88 +18 21 43.6 20.0 R H15 – ISON-NM Observatory, Mayhill MPS 365298
2011 01 03.42256 11 16 37.12 +18 21 46.5 19.9 R H15 – ISON-NM Observatory, Mayhill MPS 365298
2011 01 03.43765 11 16 37.39 +18 21 49.7 19.9 R H15 – ISON-NM Observatory, Mayhill MPS 365298
